Le nostre stazioni meteo in Italia

Pubblicità
Il mio iltempo24.it
Capo Frasca, Italia (16539): Temperatura & dewpoint: 05.12.2018 02:00:00 - 11.12.2018 02:00:00 (CET)Capo Frasca, Italia (16539): velocità del vento: 05.12.2018 02:00:00 - 11.12.2018 02:00:00 (CET)Capo Frasca, Italia (16539): direzione del vento: 05.12.2018 02:00:00 - 11.12.2018 02:00:00 (CET)Capo Frasca, Italia (16539): reduced air pressure: 05.12.2018 02:00:00 - 11.12.2018 02:00:00 (CET)Capo Frasca, Italia (16539): visibility: 05.12.2018 02:00:00 - 11.12.2018 02:00:00 (CET)
Data & Tempo tt [°C] td [°C] ff [km/h] ff [kn] dd ppp [hPa] vv [km]
11.12.2018 02:00:00 - - - - - - -
11.12.2018 01:00:00 - - - - - - -
11.12.2018 00:00:00 - - - - - - -
10.12.2018 23:00:00 - - - - - - -
10.12.2018 22:00:00 - - - - - - -
10.12.2018 21:00:00 - - - - - - -
10.12.2018 20:00:00 - - - - - - -
10.12.2018 19:00:00 12,8 10,4 34 18 NNO 1022,4 15
10.12.2018 18:00:00 - - - - - - -
10.12.2018 17:00:00 - - - - - - -
10.12.2018 16:00:00 13,2 10,2 46 25 NNO 1021,8 12
10.12.2018 15:00:00 - - - - - - -
10.12.2018 14:00:00 - - - - - - -
10.12.2018 13:00:00 14,0 12,7 50 27 NO 1022,3 15
10.12.2018 12:00:00 - - - - - - -
10.12.2018 11:00:00 - - - - - - -
10.12.2018 10:00:00 13,8 11,5 52 28 NNO 1022,7 15
10.12.2018 09:00:00 - - - - - - -
10.12.2018 08:00:00 - - - - - - -
10.12.2018 07:00:00 13,2 11,3 46 25 NO 1022,4 10
10.12.2018 06:00:00 - - - - - - -
10.12.2018 05:00:00 - - - - - - -
10.12.2018 04:00:00 - - - - - - -
10.12.2018 03:00:00 - - - - - - -
10.12.2018 02:00:00 - - - - - - -
10.12.2018 01:00:00 - - - - - - -
10.12.2018 00:00:00 - - - - - - -
09.12.2018 23:00:00 - - - - - - -
09.12.2018 22:00:00 - - - - - - -
09.12.2018 21:00:00 - - - - - - -
09.12.2018 20:00:00 - - - - - - -
09.12.2018 19:00:00 14,8 13,5 42 23 NO 1022,2 10
09.12.2018 18:00:00 - - - - - - -
09.12.2018 17:00:00 - - - - - - -
09.12.2018 16:00:00 15,4 14,8 29 16 ONO 1022,2 10
09.12.2018 15:00:00 - - - - - - -
09.12.2018 14:00:00 - - - - - - -
09.12.2018 13:00:00 15,6 14,8 29 16 ONO 1023,4 10
09.12.2018 12:00:00 - - - - - - -
09.12.2018 11:00:00 - - - - - - -
09.12.2018 10:00:00 15,4 14,6 29 16 O 1024,0 10
09.12.2018 09:00:00 - - - - - - -
09.12.2018 08:00:00 - - - - - - -
09.12.2018 07:00:00 14,4 13,8 35 19 O 1023,5 10
09.12.2018 06:00:00 - - - - - - -
09.12.2018 05:00:00 - - - - - - -
09.12.2018 04:00:00 - - - - - - -
09.12.2018 03:00:00 - - - - - - -
09.12.2018 02:00:00 - - - - - - -
09.12.2018 01:00:00 - - - - - - -
09.12.2018 00:00:00 - - - - - - -
08.12.2018 23:00:00 - - - - - - -
08.12.2018 22:00:00 - - - - - - -
08.12.2018 21:00:00 - - - - - - -
08.12.2018 20:00:00 - - - - - - -
08.12.2018 19:00:00 13,4 11,5 52 28 NO 1022,5 12
08.12.2018 18:00:00 - - - - - - -
08.12.2018 17:00:00 - - - - - - -
08.12.2018 16:00:00 14,2 12,1 41 22 NNO 1021,9 15
08.12.2018 15:00:00 - - - - - - -
08.12.2018 14:00:00 - - - - - - -
08.12.2018 13:00:00 14,8 13,2 44 24 NNO 1022,0 20
08.12.2018 12:00:00 - - - - - - -
08.12.2018 11:00:00 - - - - - - -
08.12.2018 10:00:00 14,2 10,4 46 25 NO 1021,8 18
08.12.2018 09:00:00 - - - - - - -
08.12.2018 08:00:00 - - - - - - -
08.12.2018 07:00:00 14,8 12,1 55 30 NO 1020,6 15
08.12.2018 06:00:00 - - - - - - -
08.12.2018 05:00:00 - - - - - - -
08.12.2018 04:00:00 - - - - - - -
08.12.2018 03:00:00 - - - - - - -
08.12.2018 02:00:00 - - - - - - -
08.12.2018 01:00:00 - - - - - - -
08.12.2018 00:00:00 - - - - - - -
07.12.2018 23:00:00 - - - - - - -
07.12.2018 22:00:00 - - - - - - -
07.12.2018 21:00:00 - - - - - - -
07.12.2018 20:00:00 - - - - - - -
07.12.2018 19:00:00 14,2 13,3 15 8 NO 1023,4 20
07.12.2018 18:00:00 - - - - - - -
07.12.2018 17:00:00 - - - - - - -
07.12.2018 16:00:00 15,4 14,9 2 1 SSO 1023,4 20
07.12.2018 15:00:00 - - - - - - -
07.12.2018 14:00:00 - - - - - - -
07.12.2018 13:00:00 15,6 14,1 4 2 ONO 1023,5 20
07.12.2018 12:00:00 - - - - - - -
07.12.2018 11:00:00 - - - - - - -
07.12.2018 10:00:00 12,0 10,7 2 1 O 1024,2 20
07.12.2018 09:00:00 - - - - - - -
07.12.2018 08:00:00 - - - - - - -
07.12.2018 07:00:00 9,0 7,9 2 1 E 1022,5 20
07.12.2018 06:00:00 - - - - - - -
07.12.2018 05:00:00 - - - - - - -
07.12.2018 04:00:00 - - - - - - -
07.12.2018 03:00:00 - - - - - - -
07.12.2018 02:00:00 - - - - - - -
07.12.2018 01:00:00 - - - - - - -
07.12.2018 00:00:00 - - - - - - -
06.12.2018 23:00:00 - - - - - - -
06.12.2018 22:00:00 - - - - - - -
06.12.2018 21:00:00 - - - - - - -
06.12.2018 20:00:00 - - - - - - -
06.12.2018 19:00:00 14,8 13,7 26 14 NO 1021,0 15
06.12.2018 18:00:00 - - - - - - -
06.12.2018 17:00:00 - - - - - - -
06.12.2018 16:00:00 16,2 15,1 26 14 ONO 1020,4 20
06.12.2018 15:00:00 - - - - - - -
06.12.2018 14:00:00 - - - - - - -
06.12.2018 13:00:00 16,0 14,9 18 10 O 1021,3 15
06.12.2018 12:00:00 - - - - - - -
06.12.2018 11:00:00 - - - - - - -
06.12.2018 10:00:00 14,8 13,8 11 6 SSO 1023,0 15
06.12.2018 09:00:00 - - - - - - -
06.12.2018 08:00:00 - - - - - - -
06.12.2018 07:00:00 13,6 12,8 2 1 S 1023,3 15
06.12.2018 06:00:00 - - - - - - -
06.12.2018 05:00:00 - - - - - - -
06.12.2018 04:00:00 - - - - - - -
06.12.2018 03:00:00 - - - - - - -
06.12.2018 02:00:00 - - - - - - -
06.12.2018 01:00:00 - - - - - - -
06.12.2018 00:00:00 - - - - - - -
05.12.2018 23:00:00 - - - - - - -
05.12.2018 22:00:00 - - - - - - -
05.12.2018 21:00:00 - - - - - - -
05.12.2018 20:00:00 - - - - - - -
05.12.2018 19:00:00 14,0 13,5 0 0 N 1024,5 20
05.12.2018 18:00:00 - - - - - - -
05.12.2018 17:00:00 - - - - - - -
05.12.2018 16:00:00 17,0 16,0 9 5 O 1024,4 20
05.12.2018 15:00:00 - - - - - - -
05.12.2018 14:00:00 - - - - - - -
05.12.2018 13:00:00 17,0 14,7 8 4 SO 1024,4 20
05.12.2018 12:00:00 - - - - - - -
05.12.2018 11:00:00 - - - - - - -
05.12.2018 10:00:00 15,6 14,6 0 0 N 1024,4 20
05.12.2018 09:00:00 - - - - - - -
05.12.2018 08:00:00 - - - - - - -
05.12.2018 07:00:00 12,6 11,7 2 1 ONO 1023,0 20
05.12.2018 06:00:00 - - - - - - -
05.12.2018 05:00:00 - - - - - - -
05.12.2018 04:00:00 - - - - - - -
05.12.2018 03:00:00 - - - - - - -
05.12.2018 02:00:00 - - - - - - -

tt = Temperatura
td = dewpoint
ff = velocità del vento
dd = direzione del vento
ppp = reduced air pressure
vv = visibility

Stazioni seguenti

WeatherPro
AMSI
MeteoEarth